{"data":{"norad_id":65934,"epoch":"2026-05-25T01:32:50.633088Z","epoch_age_seconds":65520,"freshness":"FRESH","line1":"1 65934U 25225AA  26145.06447492  .00014401  00000+0  49725-3 0  9996","line2":"2 65934  53.1589 170.7640 0001279  82.7539 277.3607 15.30209060 35217","mean_motion":15.3020906,"eccentricity":0.0001279,"inclination_deg":53.1589,"raan_deg":170.764,"arg_perigee_deg":82.7539,"mean_anomaly_deg":277.3607,"bstar":0.00049725,"rev_number":3521,"period_min":94.104788531313,"perigee_km":474.31147775607,"apogee_km":476.06455829568,"semimajor_km":6853.3250180259,"source":"CELESTRAK","updated_at":"2026-05-25T13:38:20.991394Z"}}